Regional Weather Roundup
Issued by NWS Huntsville, AL

Home | Current Version | Previous Version | Text Only | Print | Product List | Glossary On
Versions: 1 2 3 4 5 6 7 8 9 10 11 12 13 14 15 16 17 18 19 20 21 22 23 24 25 26 27 28 29 30 31 32 33 34 35 36 37 38 39 40 41 42 43 44 45 46 47 48 49 50
644
ASUS44 KHUN 282010
RWRHUN

WEATHER ROUNDUP FOR THE TENNESSEE VALLEY
NATIONAL WEATHER SERVICE HUNTSVILLE AL
300 PM CDT FRI APR 28 2017

ALZ001>004-282100-
NORTHWEST ALABAMA

CITY           SKY/WX    TMP DP  RH WIND       PRES   REMARKS
COURTLAND HCN    N/A     81 N/A N/A S16         N/A
RUSSELLVILLE     N/A     81 N/A N/A MISG        N/A
SHOALS AIRPORT PTSUNNY   82  68  62 S14G23    29.89F
SHOALS TVA RES   N/A     81 N/A N/A MISG        N/A
$$

ALZ005>007-016-282100-
NORTH CENTRAL ALABAMA

CITY           SKY/WX    TMP DP  RH WIND       PRES   REMARKS
CULLMAN AG STN   N/A     82 N/A N/A SW13        N/A
DECATUR AP     CLOUDY    80  70  71 S14       29.91F
HUNTSVILLE AP  CLOUDY    84  69  60 S16G24    29.91F
MERIDIANVILLE  CLOUDY    81  63  54 S17G23    29.93F
REDSTONE ARSN  CLOUDY    82  68  62 S15G22    29.91F
VINEMONT AP    FAIR      83  66  57 S16G25    29.95F
$$

ALZ008>010-282100-
NORTHEAST ALABAMA

CITY           SKY/WX    TMP DP  RH WIND       PRES   REMARKS
ALBERTVILLE    PTSUNNY   82  73  74 S10G22    29.95F
FORT PAYNE     MOSUNNY   81  61  50 S12G20    29.96F
SCOTTSBORO AP  MOSUNNY   82  64  54 S13G21    29.95F
SCOTTSBORO HCN   N/A     82 N/A N/A MISG        N/A
VALLEY HEAD      N/A     81 N/A N/A MISG        N/A
$$

TNZ076-096-097-282100-
SOUTHEASTERN MIDDLE TENNESSEE

CITY           SKY/WX    TMP DP  RH WIND       PRES   REMARKS
TULLAHOMA      MOSUNNY   81  66  61 S9        29.95F
WINCHESTER     PTSUNNY   81  64  57 S10       29.95S
$$

...SURROUNDING SITES...

CITY           SKY/WX    TMP DP  RH WIND       PRES   REMARKS
ATLANTA        MOSUNNY   82  65  56 S12       30.04S
ANNISTON       PTSUNNY   85  67  54 S9G20     29.98F
BIRMINGHAM     MOSUNNY   88  66  48 S14G31    29.97F HX  90
CHATTANOOGA    PTSUNNY   82  65  56 S12G20    29.96F
CORINTH        FAIR      82  70  65 S13G20    29.83F
DALTON         PTSUNNY   82  64  54 S9G20     29.98F
GADSDEN        PTSUNNY  N/A N/A N/A S12G20    29.96F
GOLDEN TRNGL   PTSUNNY   86  68  54 S21G28    29.83S
HALEYVILLE     CLOUDY    82  69  64 S14G22    29.92F
JACKSON TN     CLOUDY    79  71  76 S13       29.81F
MEMPHIS        CLOUDY    83  72  69 SW18G25   29.77S
NASHVILLE      LGT RAIN  75  68  78 S15       29.91S
OXFORD MS      FAIR      82  68  61 S8G23     29.82F
ROME           MOSUNNY   87  64  46 S9G18     29.97F
SAVANNAH       MOSUNNY   82  72  69 S13G20    29.83F
TUPELO         PTSUNNY   85  69  58 S17G28    29.83F
TUSCALOOSA     MOSUNNY   88  68  51 S17G32    29.90F HX  91
$$

...GULF COAST WEATHER...

CITY           SKY/WX    TMP DP  RH WIND       PRES   REMARKS
GULFPORT       CLOUDY    81  75  82 SE17      29.93F
PASCAGOULA     CLOUDY    81  73  76 SE13G22   29.95F
MOBILE         CLOUDY    82  72  71 S14       29.97S
GULF SHORES    CLOUDY    81  77  88 SE16G28   29.98F
PENSACOLA      PTSUNNY   82  73  74 SE14      29.99S
DESTIN         CLOUDY    82  78  88 SE10      30.01S HX  91
PANAMA CITY    SUNNY     85  71  63 SE16      30.02S HX  90
APPALACHICOLA  CLOUDY    80  75  84 SE10      30.04S
$$





USA.gov is the U.S. government's official web portal to all federal, state and local government web resources and services.